When you browse on this site, cookies collect data to enhance your experience and personalize the content and advertising you see.
Visit our Privacy Policy to learn more. By continuing to use the site, you agree to this use of cookies and data.
  • In Schweiz
  • Länderverzeichnis
  • Für 7 Tage
  • Wassertemperatur
  • Wetterkarte
  • Widgets
  • user-avatar
    Anmelden

    Stündliche Wetter Meribel

    Heute, 20 November, Mittwoch

    Zeit Temperatur Niederschläge Wind Luftdruck Luftfeuchtigkeit
    00:00 -3°C° 0 mm 2 m/S 627 mmHg 89%
    01:00 -3°C° 0.1 mm 2 m/S 627 mmHg 89%
    02:00 -3°C° 0.1 mm 2 m/S 627 mmHg 90%
    03:00 -3°C° 0.1 mm 2 m/S 627 mmHg 90%
    04:00 -3°C° 0 mm 2 m/S 627 mmHg 90%
    05:00 -3°C° 0 mm 2 m/S 626 mmHg 90%
    06:00 -3°C° 0 mm 2 m/S 627 mmHg 90%
    07:00 -1°C° 0 mm 2 m/S 627 mmHg 90%
    08:00 +1°C° 0 mm 2 m/S 627 mmHg 90%
    09:00 +2°C° 0 mm 2 m/S 628 mmHg 90%
    10:00 +4°C° 0 mm 1 m/S 628 mmHg 90%
    11:00 +4°C° 0 mm 1 m/S 628 mmHg 90%
    12:00 +5°C° 0 mm 1 m/S 627 mmHg 91%
    13:00 +4°C° 0 mm 1 m/S 627 mmHg 91%
    14:00 +4°C° 0 mm 1 m/S 627 mmHg 92%
    15:00 +3°C° 0 mm 1 m/S 626 mmHg 93%
    16:00 +3°C° 0 mm 1 m/S 626 mmHg 92%
    17:00 +2°C° 0 mm 1 m/S 626 mmHg 91%
    18:00 -1°C° 0 mm 2 m/S 625 mmHg 89%
    19:00 -2°C° 0 mm 2 m/S 625 mmHg 90%
    20:00 -2°C° 0 mm 2 m/S 625 mmHg 90%
    21:00 -2°C° 0 mm 2 m/S 625 mmHg 90%
    22:00 -2°C° 0 mm 2 m/S 625 mmHg 90%
    23:00 -2°C° 0 mm 2 m/S 625 mmHg 90%

    Morgen, 21 November, Donnerstag

    Zeit Temperatur Niederschläge Wind Luftdruck Luftfeuchtigkeit
    00:00 -2°C° 0 mm 2 m/S 625 mmHg 89%
    01:00 -2°C° 0.1 mm 2 m/S 625 mmHg 89%
    02:00 -2°C° 0.1 mm 2 m/S 624 mmHg 90%
    03:00 -2°C° 0.1 mm 2 m/S 624 mmHg 90%
    04:00 -2°C° 0.1 mm 2 m/S 624 mmHg 90%
    05:00 -2°C° 0.1 mm 2 m/S 624 mmHg 90%
    06:00 -2°C° 0.1 mm 2 m/S 624 mmHg 90%
    07:00 -1°C° 0.1 mm 2 m/S 624 mmHg 89%
    08:00 +1°C° 0.1 mm 2 m/S 625 mmHg 88%
    09:00 +2°C° 0.1 mm 2 m/S 625 mmHg 88%
    10:00 +2°C° 0.1 mm 2 m/S 625 mmHg 87%
    11:00 +3°C° 0.1 mm 2 m/S 625 mmHg 87%
    12:00 +4°C° 0.1 mm 1 m/S 625 mmHg 86%
    13:00 +3°C° 0.1 mm 2 m/S 625 mmHg 88%
    14:00 +2°C° 0.1 mm 2 m/S 624 mmHg 90%
    15:00 +1°C° 0.1 mm 2 m/S 624 mmHg 91%
    16:00 -1°C° 0 mm 2 m/S 624 mmHg 91%
    17:00 -2°C° 0 mm 2 m/S 623 mmHg 91%
    18:00 -3°C° 0 mm 2 m/S 623 mmHg 90%
    19:00 -3°C° 0.2 mm 2 m/S 624 mmHg 90%
    20:00 -3°C° 0.2 mm 2 m/S 624 mmHg 90%
    21:00 -2°C° 0.2 mm 2 m/S 624 mmHg 90%
    22:00 -2°C° 0.2 mm 2 m/S 624 mmHg 90%
    23:00 -3°C° 0.2 mm 2 m/S 624 mmHg 90%

    übermorgen, 22 November, Freitag

    Zeit Temperatur Niederschläge Wind Luftdruck Luftfeuchtigkeit
    00:00 -3°C° 0.2 mm 2 m/S 624 mmHg 90%
    01:00 -3°C° 0.2 mm 2 m/S 624 mmHg 90%
    02:00 -3°C° 0.2 mm 2 m/S 624 mmHg 90%
    03:00 -3°C° 0.2 mm 2 m/S 623 mmHg 90%
    04:00 -3°C° 0.1 mm 2 m/S 623 mmHg 89%
    05:00 -3°C° 0.1 mm 2 m/S 623 mmHg 89%
    06:00 -3°C° 0.1 mm 2 m/S 623 mmHg 89%
    07:00 -2°C° 0.1 mm 2 m/S 624 mmHg 88%
    08:00 -1°C° 0.1 mm 3 m/S 624 mmHg 87%
    09:00 0°C° 0.1 mm 3 m/S 625 mmHg 87%
    10:00 +1°C° 0.1 mm 3 m/S 624 mmHg 86%
    11:00 +1°C° 0.1 mm 3 m/S 624 mmHg 84%
    12:00 +2°C° 0.1 mm 3 m/S 624 mmHg 83%
    13:00 +1°C° 0.1 mm 3 m/S 623 mmHg 84%
    14:00 +1°C° 0.1 mm 3 m/S 623 mmHg 85%
    15:00 -1°C° 0.1 mm 4 m/S 622 mmHg 87%
    16:00 -1°C° 0.1 mm 4 m/S 622 mmHg 87%
    17:00 -2°C° 0.1 mm 4 m/S 622 mmHg 87%
    18:00 -2°C° 0.1 mm 4 m/S 621 mmHg 87%
    19:00 -2°C° 0.1 mm 4 m/S 621 mmHg 87%
    20:00 -2°C° 0.1 mm 4 m/S 621 mmHg 86%
    21:00 -2°C° 0.1 mm 5 m/S 621 mmHg 86%
    22:00 -4°C° 0.1 mm 5 m/S 620 mmHg 86%
    23:00 -4°C° 0.1 mm 5 m/S 620 mmHg 86%

    23 November, Samstag

    Zeit Temperatur Niederschläge Wind Luftdruck Luftfeuchtigkeit
    00:00 -4°C° 0.1 mm 5 m/S 620 mmHg 86%
    01:00 -2°C° 0.2 mm 5 m/S 619 mmHg 86%
    02:00 -2°C° 0.2 mm 5 m/S 619 mmHg 86%
    03:00 -2°C° 0.2 mm 5 m/S 618 mmHg 86%
    04:00 -2°C° 0.3 mm 5 m/S 618 mmHg 87%
    05:00 -2°C° 0.3 mm 5 m/S 618 mmHg 87%
    06:00 -2°C° 0.3 mm 5 m/S 618 mmHg 87%
    07:00 -1°C° 0.4 mm 5 m/S 618 mmHg 86%
    08:00 0°C° 0.4 mm 5 m/S 619 mmHg 86%
    09:00 +1°C° 0.4 mm 5 m/S 619 mmHg 85%
    10:00 +1°C° 0.5 mm 4 m/S 619 mmHg 86%
    11:00 +3°C° 0.5 mm 4 m/S 620 mmHg 86%
    12:00 +3°C° 0.5 mm 4 m/S 620 mmHg 86%
    13:00 +3°C° 0.7 mm 3 m/S 620 mmHg 87%
    14:00 +2°C° 0.7 mm 3 m/S 620 mmHg 89%
    15:00 +2°C° 0.7 mm 3 m/S 620 mmHg 90%
    16:00 +1°C° 0.7 mm 3 m/S 620 mmHg 90%
    17:00 +1°C° 0.7 mm 3 m/S 620 mmHg 90%
    18:00 0°C° 0.7 mm 3 m/S 620 mmHg 90%
    19:00 0°C° 0.8 mm 3 m/S 621 mmHg 90%
    20:00 0°C° 0.8 mm 3 m/S 621 mmHg 90%
    21:00 0°C° 0.8 mm 3 m/S 621 mmHg 91%
    22:00 0°C° 1.7 mm 3 m/S 622 mmHg 92%
    23:00 +1°C° 1.7 mm 2 m/S 622 mmHg 93%

    24 November, Sonntag

    Zeit Temperatur Niederschläge Wind Luftdruck Luftfeuchtigkeit
    00:00 +1°C° 1.7 mm 2 m/S 622 mmHg 93%
    01:00 +1°C° 1.4 mm 2 m/S 622 mmHg 93%
    02:00 +1°C° 1.4 mm 2 m/S 622 mmHg 93%
    03:00 +1°C° 1.4 mm 2 m/S 622 mmHg 93%
    04:00 +1°C° 1.5 mm 2 m/S 623 mmHg 93%
    05:00 +1°C° 1.5 mm 2 m/S 623 mmHg 93%
    06:00 0°C° 1.5 mm 3 m/S 623 mmHg 92%
    07:00 +2°C° 0.6 mm 2 m/S 624 mmHg 91%
    08:00 +2°C° 0.6 mm 2 m/S 625 mmHg 90%
    09:00 +3°C° 0.6 mm 2 m/S 626 mmHg 90%
    10:00 +4°C° 0.3 mm 2 m/S 626 mmHg 90%
    11:00 +4°C° 0.3 mm 2 m/S 627 mmHg 90%
    12:00 +5°C° 0.3 mm 2 m/S 627 mmHg 90%
    13:00 +5°C° 0.2 mm 2 m/S 627 mmHg 91%
    14:00 +4°C° 0.2 mm 2 m/S 627 mmHg 91%
    15:00 +5°C° 0.2 mm 1 m/S 627 mmHg 92%
    16:00 +4°C° 0 mm 1 m/S 627 mmHg 92%
    17:00 +3°C° 0 mm 1 m/S 627 mmHg 91%
    18:00 +2°C° 0 mm 1 m/S 627 mmHg 91%
    19:00 +2°C° 0 mm 1 m/S 627 mmHg 90%
    20:00 +1°C° 0 mm 1 m/S 628 mmHg 88%
    21:00 +1°C° 0 mm 1 m/S 628 mmHg 87%
    22:00 +1°C° 0 mm 1 m/S 628 mmHg 84%
    23:00 +1°C° 0 mm 1 m/S 628 mmHg 82%

    25 November, Montag

    Zeit Temperatur Niederschläge Wind Luftdruck Luftfeuchtigkeit
    00:00 +1°C° 0 mm 1 m/S 628 mmHg 79%
    01:00 +1°C° 0 mm 1 m/S 628 mmHg 78%
    02:00 +1°C° 0 mm 1 m/S 628 mmHg 76%
    03:00 +1°C° 0 mm 1 m/S 628 mmHg 75%
    04:00 +1°C° 0 mm 1 m/S 628 mmHg 74%
    05:00 +1°C° 0 mm 1 m/S 628 mmHg 73%
    06:00 +1°C° 0 mm 1 m/S 628 mmHg 72%
    07:00 +3°C° 0 mm 1 m/S 628 mmHg 73%
    08:00 +4°C° 0 mm 1 m/S 629 mmHg 75%
    09:00 +5°C° 0 mm 0 m/S 630 mmHg 77%
    10:00 +5°C° 0 mm 0 m/S 630 mmHg 81%
    11:00 +5°C° 0 mm 0 m/S 630 mmHg 85%
    12:00 +6°C° 0 mm 0 m/S 630 mmHg 89%
    13:00 +5°C° 0 mm 0 m/S 629 mmHg 86%
    14:00 +4°C° 0 mm 0 m/S 629 mmHg 84%
    15:00 +4°C° 0 mm 0 m/S 629 mmHg 82%
    16:00 +4°C° 0 mm 1 m/S 629 mmHg 80%
    17:00 +3°C° 0 mm 1 m/S 628 mmHg 78%
    18:00 +2°C° 0 mm 1 m/S 628 mmHg 76%
    19:00 +2°C° 0 mm 1 m/S 628 mmHg 75%
    20:00 +2°C° 0 mm 1 m/S 628 mmHg 73%
    21:00 +2°C° 0 mm 1 m/S 628 mmHg 72%
    22:00 +2°C° 0 mm 1 m/S 628 mmHg 73%
    23:00 +1°C° 0 mm 1 m/S 628 mmHg 73%
    Mehr zeigen